www.pogodaiklimat.ru

Погода и климат >> Архив погоды >> Индия >> Jagdalpur


ПОГОДА в Jagdalpur

  • Прогноз погоды в Jagdalpur
  • Монитор погоды в Jagdalpur
  • Климат города

АРХИВ ПОГОДЫ в Jagdalpur

Время (UTC), дата Ветер
(напр.,м/с)
 
Видим.   Явления Облачность Т
(С)
Тd
(С)
f
(%)
Тe
(С)
Тes
(С)
Комфортность P
(гПа)
Po
(гПа)
Тmin
(С)
Tmax
(С)
R
(мм)
R24
(мм)
S
(см)
09 18.06 З 1 4000 м 4/3 900 м
[Cu med, cong Ac trans]
+33.6 +20.6 47 +41 +52 опасность
перегрева
1000.5 941.7
12 18.06 З 1 4000 м 6/6 750 м
[]
+33.0 +19.9 46 +39 +40 очень
душно
999.8 940.9 +34.8
15 18.06 штиль 0 4000 м 6/4 750 м
[Sc Ac trans]
+29.2 +22.3 66 +38 +38 очень
душно
1002.1 942.5
18 18.06 З 1 4000 м 8/4 750 м
[Sc Ac trans]
+28.8 +21.9 66 +37 +37 очень
душно
1003.1 943.1
21 18.06 штиль 0 2100 м 4/0
[]
+24.0 +22.0 89 +31 +31 очень
душно
1004.0 942.7
00 19.06 штиль 0 4000 м 8/4 750 м
[Sc Ac trans Ci fib]
+26.8 +21.6 73 +34 +34 очень
душно
1002.7 942.4
03 19.06 ЮЗ 1 4000 м 4/1 210 м
[Sc Ci fib]
+29.6 +21.5 62 +38 +47 очень
душно
1003.9 943.5 +25.4
06 19.06 СЗ 1 4000 м 4/4 750 м
[Cu Sc]
+32.2 +21.9 55 +41 +56 опасность
перегрева
1001.6 942.6
09 19.06 СЗ 1 4000 м 5/4 750 м
[Cu Sc]
+35.6 +21.4 44 +43 +53 опасность
перегрева
999.1 940.8
12 19.06 СЗ 1 4000 м {дождь} 6/6 750 м
[Cu Sc]
+32.8 +21.0 50 +40 +41 очень
душно
998.9 940.0 +36.0 0.2
15 19.06 штиль 0 4000 м в посл. час дождь {гроза} 9/6 450 м
[Cb cap As trans]
+26.2 +21.2 74 +33 +33 очень
душно
1002.8 942.5 0.2
18 19.06 штиль 0 4000 м {гроза, дождь} 5/3 750 м
[Sc Ac trans]
+25.6 +22.7 84 +34 +34 очень
душно
1003.3 942.9 0.2
21 19.06 ЮЗ 1 4000 м 8/4 750 м
[Sc Ac trans]
+25.0 +22.4 86 +33 +33 очень
душно
1002.9 942.2 0.2
00 20.06 штиль 0 4000 м 6/3 750 м
[Sc Ac trans]
+25.0 +23.6 92 +34 +34 очень
душно
1003.4 942.7 0.2
03 20.06 ЮЗ 3 4000 м 6/3 750 м
[Sc Ac trans]
+29.2 +21.7 64 +37 +42 очень
душно
1003.5 943.7 +24.2 0.2
06 20.06 СЗ 3 4000 м 6/5 600 м
[Cb calv Ci fib]
+26.5 +21.0 72 +33 +33 очень
душно
1001.5 942.9
09 20.06 Ю 2 1000 м гроза, ливневой дождь 10/6 600 м
[Cb cap As op]
+23.0 +22.4 96 +31 +33 очень
душно
1004.5 943.3 13
12 20.06 Ю 1 4000 м в посл. час гроза {дождь} 9/9 900 м
[Cb cap]
+24.7 +24.2 97 +34 +34 очень
душно
1002.3 941.6 +24.7 33
15 20.06 штиль 0 4000 м 9/5 750 м
[Sc Ac trans]
+25.4 +24.3 94 +35 +35 очень
душно
1003.8 943.2 33
18 20.06 штиль 0 4000 м 6/3 750 м
[Sc Ac trans]
+25.0 +23.9 94 +34 +34 очень
душно
1004.1 943.3 33
21 20.06 штиль 0 4000 м 3/3 750 м
[Sc]
+24.6 +23.7 95 +33 +33 очень
душно
1002.7 942.0 33
00 21.06 штиль 0 4000 м 6/3 750 м
[Sc Ac trans]
+24.4 +23.8 96 +33 +33 очень
душно
1003.4 942.7 33
03 21.06 ЮЗ 1 4000 м 9/9 750 м
[Cu Sc]
+27.8 +23.0 75 +37 +38 очень
душно
1004.2 944.0 +23.2 33
06 21.06 ЮЗ 1 4000 м 6/3 750 м
[Sc Ac trans]
+32.7 +23.0 57 +43 +56 опасность
перегрева
1002.3 943.2
09 21.06 ЮЗ 1 4000 м 8/5 750 м
[Cu Sc Ac trans]
+34.0 +23.1 53 +44 +50 опасность
перегрева
999.5 940.8
12 21.06 З 3 1000 м гроза с градом {дождь} 10/8 450 м
[Cb cap As op]
+21.6 +21.0 96 +27 +27 душно 1003.5 942.2 +34.9 23
15 21.06 ЮЗ 1 4000 м гроза без осадков {дождь} 9/5 750 м
[Cb cap Ac trans]
+24.0 +22.0 89 +31 +31 очень
душно
1004.0 943.0
18 21.06 штиль 0 4000 м {гроза} 10/5 750 м
[Sc As trans]
+23.0 +21.8 93 +31 +31 очень
душно
1004.3 943.0 28
21 21.06 СВ 1 4000 м слабый дождь 9/5 750 м
[Sc Ac trans]
+23.0 +21.5 91 +31 +31 очень
душно
1004.0 942.9 29
00 22.06 З 1 2000 м слабый дождь 10/5 600 м
[Sc As op]
+23.2 +22.3 95 +32 +32 очень
душно
1004.2 943.2 29
03 22.06 Ю 1 2000 м слабый дождь 10/6 450 м
[Frnb As op]
+23.4 +22.5 95 +32 +33 очень
душно
1005.8 944.8 +20.4 31
06 22.06 ЮВ 1 4000 м {дождь} 9/6 450 м
[St As trans]
+26.0 +22.6 82 +34 +40 очень
душно
1004.2 943.6 0.1
09 22.06 штиль 0 4000 м 10/6 450 м
[St As trans]
+28.0 +23.8 78 +39 +42 очень
душно
1002.1 942.1 0.1
12 22.06 Ю 1 4000 м 6/4 750 м
[Sc Ac trans]
+28.0 +23.5 77 +38 +39 очень
душно
1001.5 941.5 +28.6 0.1
15 22.06 штиль 0 4000 м 8/4 750 м
[Sc Ac trans]
+26.0 +23.7 87 +35 +35 очень
душно
1003.1 942.7 0.1
18 22.06 штиль 0 4000 м 9/6 750 м
[Sc Ac trans]
+25.2 +23.5 90 +34 +34 очень
душно
1004.0 943.4 0.1
21 22.06 штиль 0 4000 м 9/6 750 м
[Sc Ac trans]
+24.6 +23.2 92 +33 +33 очень
душно
1003.1 942.4 0.1
00 23.06 штиль 0 4000 м 10/6 750 м
[Sc As trans]
+24.4 +23.0 92 +32 +32 очень
душно
1003.3 942.6 0.1
03 23.06 З 1 4000 м 8/3 750 м
[Sc Ac trans]
+26.0 +22.6 82 +34 +39 очень
душно
1004.7 944.1 +23.5 0.1
06 23.06 Ю 1 4000 м 9/6 450 м
[St Ac trans]
+27.6 +22.5 74 +36 +42 очень
душно
1004.1 943.9
09 23.06 В 1 4000 м 9/5 600 м
[Cu Sc Ac trans]
+29.2 +24.3 75 +41 +46 опасность
перегрева
1001.7 942.1
12 23.06 З 1 4000 м 8/5 600 м
[Cu Sc Ac trans]
+29.0 +24.0 74 +40 +41 очень
душно
1000.4 940.9 +30.4
15 23.06 ЮЗ 1 4000 м 9/5 750 м
[Sc Ac trans]
+27.2 +24.1 83 +38 +38 очень
душно
1003.2 943.1
18 23.06 Ю 1 4000 м 4/0
[Ac trans]
+25.8 +22.9 84 +34 +34 очень
душно
1003.5 943.0
21 23.06 ЮЗ 1 4000 м 6/3 750 м
[Sc Ac trans]
+24.8 +22.2 85 +32 +32 очень
душно
1002.9 942.2
00 24.06 штиль 0 4000 м 8/5 750 м
[Sc Ac trans]
+24.0 +22.6 92 +31 +31 очень
душно
1003.5 942.6
03 24.06 З 1 4000 м 10/5 600 м
[Sc As op]
+26.2 +23.4 85 +36 +37 очень
душно
1004.5 944.1 +23.0
06 24.06 З 2 4000 м 9/5 450 м
[St As trans]
+29.0 +23.5 72 +39 +45 очень
душно
1003.9 943.9
09 24.06 СЗ 1 4000 м 9/6 450 м
[St Ac trans]
+31.6 +23.8 63 +43 +47 опасность
перегрева
1000.9 941.7
12 24.06 ЮЗ 1 4000 м слабый дождь 9/6 600 м
[Cu Sc Ac trans]
+27.4 +24.0 82 +38 +38 очень
душно
1001.1 941.1 +31.8 0.2
15 24.06 З 1 4000 м 10/5 600 м
[Sc As op]
+27.4 +24.0 82 +38 +38 очень
душно
1002.7 942.7 0.2
18 24.06 З 1 4000 м 10/5 600 м
[Sc As op]
+26.4 +23.6 85 +36 +36 очень
душно
1003.6 943.2 0.2
21 24.06 Ю 1 4000 м 6/3 750 м
[Sc Ac trans]
+25.6 +22.7 84 +34 +34 очень
душно
1002.7 942.3 0.2
00 25.06 штиль 0 4000 м 3/3 750 м
[Sc]
+25.0 +23.6 92 +34 +34 очень
душно
1002.5 941.8 0.2
03 25.06 СЗ 1 4000 м 8/3 750 м
[Sc Ac trans Ci fib]
+28.2 +23.4 75 +38 +43 очень
душно
1002.5 942.7 +24.0 0.2
06 25.06 З 2 4000 м 6/6 750 м
[Cu Sc]
+32.0 +22.4 57 +41 +50 опасность
перегрева
1001.0 941.8

 

Местоположение метеостанции Jagdalpur (Chhattisgarh, Индия): широта 19.08 долгота 82.03 высота над уровнем моря 553 м.

В архиве по умолчанию представлена погода в Jagdalpur за последнюю неделю. Архивные данные за месяц целиком и за предыдущие месяцы, начиная с января 2011 года, Вы можете получить, выбрав интересующий диапазон дат из раскрывающегося списка и нажав кнопку "Ввод!".


*Определитесь, кто Вы:
робот инопланетянин человек

Внимание! Время в таблицах - всемирное. Для получения местного времени необходимо прибавить поправку, которая в Jagdalpur равна 5.5 ч.

Смотрите также архив погоды в соседних городах и на ближайших метеорологических станциях:

Погода в Koraput (Orissa, Индия) (78 км)
Погода в Bhawanipatna (Orissa, Индия) (153 км)
Погода в Titlagarh (Orissa, Индия) (190 км)
Погода в Visakhapatnam (Andhra Pradesh, Индия) (197 км)
Погода в Bhadrachalam (Telangana, Индия) (198 км)
Погода в Tuni (Andhra Pradesh, Индия) (200 км)
Погода в Visakhapatnam Walt (Andhra Pradesh, Индия) (204 км)
Погода в Kalingapatam (Andhra Pradesh, Индия) (236 км)
Погода в Kakinada (Andhra Pradesh, Индия) (238 км)
Погода в Raipur (Chhattisgarh, Индия) (242 км)

Пояснения к столбцам:

Ветер - указаны скорость ветра в м/с - средняя за 10 мин, порывы в срок и между сроками (в фигурных скобках) и направление, откуда дует ветер: С - северный, СВ - северо-восточный, В - восточный, ЮВ - юго-восточный, Ю - южный, ЮЗ - юго-западный, З - западный, СЗ - северо-западный.
Видимость - горизонтальная дальность видимости в метрах или километрах. При видимости от 1 до 10 км при отсутствии осадков обычно наблюдается дымка, при ухудшении видимости до 1 км и менее - туман. В сухую погоду видимость может ухудшаться дымом, пылью или мглою.
Явления - указаны атмосферные явления, наблюдавшиеся в срок или в последний час перед сроком; фигурными скобками обозначены явления, наблюдавшиеся между сроками (за 1-3 часа до срока); квадратными скобками обозначены град или гололедные отложения с указанием их диаметра в мм.
Облачность - указаны через наклонную черту общая и нижняя облачность в баллах и высота нижней границы облаков в метрах; квадратными скобками обозначены формы облаков: Ci - перистые, Cs - перисто-слоистые, Cc - перисто-кучевые, Ac - высококучевые, As - высокослоистые, Sc - слоисто-кучевые, Ns - слоисто-дождевые, Cu - кучевые, Cb - кучево-дождевые. Подробнее классификацию облаков см. в Атласе облаков (PDF).
T - Температура воздуха - температура, измеренная на высоте 2 м над землей.
Td - Температура точки росы - температура, при понижении до которой содержащийся в воздухе водяной пар достигнет насыщения.
f - Относительная влажность воздуха - влажноcть воздуха, измеренная на высоте 2 м над землей.
Te - Эффективная температура - температура, которую ощущает одетый по сезону человек в тени. Характеристика душности погоды. При расчете учитывается влияние влажности воздуха и скорости ветра на теплоощущения человека.
Tes - Эффективная температура на солнце - температура, которую ощущает человек, с поправкой на солнечный нагрев. Характеристика знойности погоды. Зависит от высоты солнца над горизонтом, облачности и скорости ветра. Ночью, в пасмурную погоду, а также при ветре 12 м/с и более поправка равна нулю.
P - Атмосферное давление - приведенное к уровню моря атмосферное давление.
Po - Атмосферное давление - измеренное на уровне метеостанции атмосферное давление.
Tmin - Минимальная температура - минимум температуры воздуха на высоте 2 м над землей.
Tmax - Максимальная температура - максимум температуры воздуха на высоте 2 м над землей.
R - Количество осадков - Количество выпавших осадков за период времени, мм. При наведении курсора мыши на число - период времени, за который выпало указанное количество осадков.
R24 - Количество осадков - Количество выпавших осадков за 24 часа, мм.
S - Снежный покров - Высота снежного покрова, см. При наведении курсора мыши на число - состояние снежного покрова и степень покрытия местности в баллах.